Year,Month,Day,Hour,Minute,Value (Times are PST for temperature in C)
2017,11,22,00,00,9.40
2017,11,22,00,01,9.50
2017,11,22,00,02,9.50
2017,11,22,00,03,9.50
2017,11,22,00,04,9.50
2017,11,22,00,05,9.50
2017,11,22,00,06,9.60
2017,11,22,00,07,9.60
2017,11,22,00,08,9.60
2017,11,22,00,09,9.60
2017,11,22,00,10,9.60
2017,11,22,00,11,9.60
2017,11,22,00,12,9.60
2017,11,22,00,13,9.60
2017,11,22,00,14,9.70
2017,11,22,00,15,9.70
2017,11,22,00,16,9.70
2017,11,22,00,17,9.70
2017,11,22,00,18,9.70
2017,11,22,00,19,9.70
2017,11,22,00,20,9.70
2017,11,22,00,21,9.70
2017,11,22,00,22,9.70
2017,11,22,00,23,9.70
2017,11,22,00,24,9.70
2017,11,22,00,25,9.70
2017,11,22,00,26,9.70
2017,11,22,00,27,9.70
2017,11,22,00,28,9.70
2017,11,22,00,29,9.70
2017,11,22,00,30,9.70
2017,11,22,00,31,9.70
2017,11,22,00,32,9.70
2017,11,22,00,33,9.70
2017,11,22,00,34,9.70
2017,11,22,00,35,9.70
2017,11,22,00,36,9.70
2017,11,22,00,37,9.70
2017,11,22,00,38,9.70
2017,11,22,00,39,9.70
2017,11,22,00,40,9.70
2017,11,22,00,41,9.70
2017,11,22,00,42,9.70
2017,11,22,00,43,9.70
2017,11,22,00,44,9.70
2017,11,22,00,45,9.70
2017,11,22,00,46,9.70
2017,11,22,00,47,9.70
2017,11,22,00,48,9.70
2017,11,22,00,49,9.70
2017,11,22,00,50,9.70
2017,11,22,00,51,9.70
2017,11,22,00,52,9.70
2017,11,22,00,53,9.70
2017,11,22,00,54,9.70
2017,11,22,00,55,9.70
2017,11,22,00,56,9.70
2017,11,22,00,57,9.70
2017,11,22,00,58,9.70
2017,11,22,00,59,9.70
2017,11,22,01,00,9.70
2017,11,22,01,01,9.60
2017,11,22,01,02,9.60
2017,11,22,01,03,9.60
2017,11,22,01,04,9.60
2017,11,22,01,05,9.60
2017,11,22,01,06,9.60
2017,11,22,01,07,9.60
2017,11,22,01,08,9.60
2017,11,22,01,09,9.50
2017,11,22,01,10,9.50
2017,11,22,01,11,9.50
2017,11,22,01,12,9.50
2017,11,22,01,13,9.50
2017,11,22,01,14,9.50
2017,11,22,01,15,9.50
2017,11,22,01,16,9.40
2017,11,22,01,17,9.40
2017,11,22,01,18,9.40
2017,11,22,01,19,9.40
2017,11,22,01,20,9.40
2017,11,22,01,21,9.40
2017,11,22,01,22,9.40
2017,11,22,01,23,9.40
2017,11,22,01,24,9.40
2017,11,22,01,25,9.40
2017,11,22,01,26,9.40
2017,11,22,01,27,9.40
2017,11,22,01,28,9.40
2017,11,22,01,29,9.40
2017,11,22,01,30,9.40
2017,11,22,01,31,9.40
2017,11,22,01,32,9.40
2017,11,22,01,33,9.40
2017,11,22,01,34,9.50
2017,11,22,01,35,9.50
2017,11,22,01,36,9.50
2017,11,22,01,37,9.50
2017,11,22,01,38,9.50
2017,11,22,01,39,9.50
2017,11,22,01,40,9.50
2017,11,22,01,41,9.50
2017,11,22,01,42,9.50
2017,11,22,01,43,9.50
2017,11,22,01,44,9.50
2017,11,22,01,45,9.60
2017,11,22,01,46,9.60
2017,11,22,01,47,9.60
2017,11,22,01,48,9.60
2017,11,22,01,49,9.60
2017,11,22,01,50,9.60
2017,11,22,01,51,9.60
2017,11,22,01,52,9.60
2017,11,22,01,53,9.60
2017,11,22,01,54,9.60
2017,11,22,01,55,9.60
2017,11,22,01,56,9.60
2017,11,22,01,57,9.70
2017,11,22,01,58,9.70
2017,11,22,01,59,9.70
2017,11,22,02,00,9.80
2017,11,22,02,01,9.80
2017,11,22,02,02,9.80
2017,11,22,02,03,9.80
2017,11,22,02,04,9.80
2017,11,22,02,05,9.80
2017,11,22,02,06,9.80
2017,11,22,02,07,9.80
2017,11,22,02,08,9.80
2017,11,22,02,09,9.80
2017,11,22,02,10,9.80
2017,11,22,02,11,9.80
2017,11,22,02,12,9.80
2017,11,22,02,13,9.80
2017,11,22,02,14,9.80
2017,11,22,02,15,9.80
2017,11,22,02,16,9.80
2017,11,22,02,17,9.80
2017,11,22,02,18,9.80
2017,11,22,02,19,9.80
2017,11,22,02,20,9.80
2017,11,22,02,21,9.80
2017,11,22,02,22,9.80
2017,11,22,02,23,9.80
2017,11,22,02,24,9.80
2017,11,22,02,25,9.80
2017,11,22,02,26,9.80
2017,11,22,02,27,9.80
2017,11,22,02,28,9.80
2017,11,22,02,29,9.80
2017,11,22,02,30,9.80
2017,11,22,02,31,9.80
2017,11,22,02,32,9.80
2017,11,22,02,33,9.80
2017,11,22,02,34,9.80
2017,11,22,02,35,9.80
2017,11,22,02,36,9.80
2017,11,22,02,37,9.80
2017,11,22,02,38,9.80
2017,11,22,02,39,9.80
2017,11,22,02,40,9.80
2017,11,22,02,41,9.80
2017,11,22,02,42,9.80
2017,11,22,02,43,9.80
2017,11,22,02,44,9.80
2017,11,22,02,45,9.80
2017,11,22,02,46,9.80
2017,11,22,02,47,9.80
2017,11,22,02,48,9.80
2017,11,22,02,49,9.80
2017,11,22,02,50,9.80
2017,11,22,02,51,9.80
2017,11,22,02,52,9.80
2017,11,22,02,53,9.80
2017,11,22,02,54,9.80
2017,11,22,02,55,9.80
2017,11,22,02,56,9.80
2017,11,22,02,57,9.80
2017,11,22,02,58,9.80
2017,11,22,02,59,9.80
2017,11,22,03,00,9.80
2017,11,22,03,01,9.80
2017,11,22,03,02,9.80
2017,11,22,03,03,9.80
2017,11,22,03,04,9.80
2017,11,22,03,05,9.80
2017,11,22,03,06,9.80
2017,11,22,03,07,9.80
2017,11,22,03,08,9.80
2017,11,22,03,09,9.80
2017,11,22,03,10,9.80
2017,11,22,03,11,9.80
2017,11,22,03,12,9.80
2017,11,22,03,13,9.80
2017,11,22,03,14,9.80
2017,11,22,03,15,9.80
2017,11,22,03,16,9.80
2017,11,22,03,17,9.80
2017,11,22,03,18,9.80
2017,11,22,03,19,9.90
2017,11,22,03,20,9.90
2017,11,22,03,21,9.90
2017,11,22,03,22,9.90
2017,11,22,03,23,9.90
2017,11,22,03,24,9.90
2017,11,22,03,25,9.90
2017,11,22,03,26,9.90
2017,11,22,03,27,9.90
2017,11,22,03,28,9.90
2017,11,22,03,29,9.90
2017,11,22,03,30,9.90
2017,11,22,03,31,9.90
2017,11,22,03,32,9.90
2017,11,22,03,33,9.90
2017,11,22,03,34,9.90
2017,11,22,03,35,9.90
2017,11,22,03,36,9.90
2017,11,22,03,37,9.90
2017,11,22,03,38,9.90
2017,11,22,03,39,10.00
2017,11,22,03,40,10.00
2017,11,22,03,41,10.00
2017,11,22,03,42,10.00
2017,11,22,03,43,10.00
2017,11,22,03,44,10.00
2017,11,22,03,45,10.00
2017,11,22,03,46,10.00
2017,11,22,03,47,10.00
2017,11,22,03,48,10.10
2017,11,22,03,49,10.10
2017,11,22,03,50,10.10
2017,11,22,03,51,10.10
2017,11,22,03,52,10.10
2017,11,22,03,53,10.10
2017,11,22,03,54,10.10
2017,11,22,03,55,10.10
2017,11,22,03,56,10.10
2017,11,22,03,57,10.10
2017,11,22,03,58,10.10
2017,11,22,03,59,10.10
2017,11,22,04,00,10.10
2017,11,22,04,01,10.10
2017,11,22,04,02,10.10
2017,11,22,04,03,10.10
2017,11,22,04,04,10.10
2017,11,22,04,05,10.10
2017,11,22,04,06,10.10
2017,11,22,04,07,10.10
2017,11,22,04,08,10.10
2017,11,22,04,09,10.10
2017,11,22,04,10,10.10
2017,11,22,04,11,10.10
2017,11,22,04,12,10.20
2017,11,22,04,13,10.20
2017,11,22,04,14,10.20
2017,11,22,04,15,10.20
2017,11,22,04,16,10.20
2017,11,22,04,17,10.20
2017,11,22,04,18,10.20
2017,11,22,04,19,10.20
2017,11,22,04,20,10.20
2017,11,22,04,21,10.30
2017,11,22,04,22,10.30
2017,11,22,04,23,10.30
2017,11,22,04,24,10.30
2017,11,22,04,25,10.30
2017,11,22,04,26,10.30
2017,11,22,04,27,10.30
2017,11,22,04,28,10.30
2017,11,22,04,29,10.30
2017,11,22,04,30,10.30
2017,11,22,04,31,10.30
2017,11,22,04,32,10.30
2017,11,22,04,33,10.30
2017,11,22,04,34,10.30
2017,11,22,04,35,10.30
2017,11,22,04,36,10.30
2017,11,22,04,37,10.30
2017,11,22,04,38,10.40
2017,11,22,04,39,10.40
2017,11,22,04,40,10.40
2017,11,22,04,41,10.50
2017,11,22,04,42,10.50
2017,11,22,04,43,10.60
2017,11,22,04,44,10.60
2017,11,22,04,45,10.60
2017,11,22,04,46,10.50
2017,11,22,04,47,10.50
2017,11,22,04,48,10.50
2017,11,22,04,49,10.40
2017,11,22,04,50,10.40
2017,11,22,04,51,10.40
2017,11,22,04,52,10.40
2017,11,22,04,53,10.40
2017,11,22,04,54,10.50
2017,11,22,04,55,10.50
2017,11,22,04,56,10.50
2017,11,22,04,57,10.60
2017,11,22,04,58,10.60
2017,11,22,04,59,10.60
2017,11,22,05,00,10.70
2017,11,22,05,01,10.70
2017,11,22,05,02,10.70
2017,11,22,05,03,10.80
2017,11,22,05,04,10.80
2017,11,22,05,05,10.80
2017,11,22,05,06,10.80
2017,11,22,05,07,10.80
2017,11,22,05,08,10.80
2017,11,22,05,09,10.80
2017,11,22,05,10,10.80
2017,11,22,05,11,10.80
2017,11,22,05,12,10.90
2017,11,22,05,13,10.90
2017,11,22,05,14,10.90
2017,11,22,05,15,10.90
2017,11,22,05,16,10.90
2017,11,22,05,17,10.80
2017,11,22,05,18,10.80
2017,11,22,05,19,10.80
2017,11,22,05,20,10.80
2017,11,22,05,21,10.80
2017,11,22,05,22,10.80
2017,11,22,05,23,10.80
2017,11,22,05,24,10.80
2017,11,22,05,25,10.80
2017,11,22,05,26,10.80
2017,11,22,05,27,11.00
2017,11,22,05,28,11.10
2017,11,22,05,29,11.20
2017,11,22,05,30,11.30
2017,11,22,05,31,11.30
2017,11,22,05,32,11.30
2017,11,22,05,33,11.20
2017,11,22,05,34,11.20
2017,11,22,05,35,11.20
2017,11,22,05,36,11.20
2017,11,22,05,37,11.20
2017,11,22,05,38,11.20
2017,11,22,05,39,11.20
2017,11,22,05,40,11.20
2017,11,22,05,41,11.20
2017,11,22,05,42,11.20
2017,11,22,05,43,11.20
2017,11,22,08,32,10.60
2017,11,22,08,33,10.60
2017,11,22,08,34,10.60
2017,11,22,08,35,10.60
2017,11,22,08,36,10.60
2017,11,22,08,37,10.60
2017,11,22,08,38,10.60
2017,11,22,08,39,10.60
2017,11,22,08,40,10.60
2017,11,22,08,41,10.60
2017,11,22,08,42,10.70
2017,11,22,08,43,10.70
2017,11,22,08,44,10.80
2017,11,22,08,45,10.80
2017,11,22,08,46,10.90
2017,11,22,08,47,10.90
2017,11,22,08,48,10.90
2017,11,22,08,49,10.90
2017,11,22,08,50,10.90
2017,11,22,08,51,10.90
2017,11,22,08,52,10.90
2017,11,22,08,53,10.90
2017,11,22,08,54,10.90
2017,11,22,08,55,10.90
2017,11,22,08,56,10.90
2017,11,22,08,57,10.90
2017,11,22,08,58,10.90
2017,11,22,08,59,11.00
2017,11,22,09,00,11.00
2017,11,22,09,01,11.10
2017,11,22,09,02,11.10
2017,11,22,09,03,11.10
2017,11,22,09,04,11.20
2017,11,22,09,05,11.20
2017,11,22,09,06,11.30
2017,11,22,09,07,11.30
2017,11,22,09,08,11.40
2017,11,22,09,09,11.40
2017,11,22,09,10,11.50
2017,11,22,09,11,11.50
2017,11,22,09,12,11.50
2017,11,22,09,13,11.60
2017,11,22,09,14,11.80
2017,11,22,09,15,11.90
2017,11,22,09,16,11.90
2017,11,22,09,17,11.80
2017,11,22,09,18,11.80
2017,11,22,09,19,11.80
2017,11,22,09,20,11.80
2017,11,22,09,21,11.90
2017,11,22,09,22,12.10
2017,11,22,09,23,12.10
2017,11,22,09,24,12.10
2017,11,22,09,25,12.10
2017,11,22,09,26,12.00
2017,11,22,09,27,11.90
2017,11,22,09,28,11.90
2017,11,22,09,29,11.80
2017,11,22,09,30,11.80
2017,11,22,09,31,11.80
2017,11,22,09,32,11.90
2017,11,22,09,33,12.00
2017,11,22,09,34,12.00
2017,11,22,09,35,12.00
2017,11,22,09,36,11.90
2017,11,22,09,37,11.80
2017,11,22,09,38,11.80
2017,11,22,09,39,11.70
2017,11,22,09,40,11.60
2017,11,22,09,41,11.50
2017,11,22,09,42,11.50
2017,11,22,09,43,11.50
2017,11,22,09,44,11.50
2017,11,22,09,45,11.50
2017,11,22,09,46,11.50
2017,11,22,09,47,11.50
2017,11,22,09,48,11.50
2017,11,22,09,49,11.50
2017,11,22,09,50,11.60
2017,11,22,09,51,11.60
2017,11,22,09,52,11.60
2017,11,22,09,53,11.70
2017,11,22,09,54,11.70
2017,11,22,09,55,11.70
2017,11,22,09,56,11.80
2017,11,22,09,57,11.80
2017,11,22,09,58,11.80
2017,11,22,09,59,11.90
2017,11,22,10,00,12.00
2017,11,22,10,01,12.00
2017,11,22,10,02,12.10
2017,11,22,10,03,12.20
2017,11,22,10,04,12.20
2017,11,22,10,05,12.30
2017,11,22,10,06,12.40
2017,11,22,10,07,12.40
2017,11,22,10,08,12.40
2017,11,22,10,09,12.40
2017,11,22,10,10,12.40
2017,11,22,10,11,12.40
2017,11,22,10,12,12.40
2017,11,22,10,13,12.40
2017,11,22,10,14,12.50
2017,11,22,10,15,12.40
2017,11,22,10,16,12.50
2017,11,22,10,17,12.50
2017,11,22,10,18,12.60
2017,11,22,10,19,12.60
2017,11,22,10,20,12.60
2017,11,22,10,21,12.70
2017,11,22,10,22,12.70
2017,11,22,10,23,12.70
2017,11,22,10,24,12.70
2017,11,22,10,25,12.70
2017,11,22,10,26,12.80
2017,11,22,10,27,12.80
2017,11,22,10,28,12.90
2017,11,22,10,29,12.90
2017,11,22,10,30,12.90
2017,11,22,10,31,12.90
2017,11,22,10,32,13.00
2017,11,22,10,33,13.00
2017,11,22,10,34,13.00
2017,11,22,10,35,13.10
2017,11,22,10,36,13.10
2017,11,22,10,37,13.20
2017,11,22,10,38,13.10
2017,11,22,10,39,13.20
2017,11,22,10,40,13.20
2017,11,22,10,41,13.20
2017,11,22,10,42,13.20
2017,11,22,10,43,13.20
2017,11,22,10,44,13.20
2017,11,22,10,45,13.20
2017,11,22,10,46,13.30
2017,11,22,10,47,13.30
2017,11,22,10,48,13.30
2017,11,22,10,49,13.30
2017,11,22,10,50,13.40
2017,11,22,10,51,13.40
2017,11,22,10,52,13.40
2017,11,22,10,53,13.40
2017,11,22,10,54,13.40
2017,11,22,10,55,13.30
2017,11,22,10,56,13.40
2017,11,22,10,57,13.40
2017,11,22,10,58,13.40
2017,11,22,10,59,13.40
2017,11,22,11,00,13.40
2017,11,22,11,01,13.40
2017,11,22,11,02,13.40
2017,11,22,11,03,13.30
2017,11,22,11,04,13.30
2017,11,22,11,05,13.40
2017,11,22,11,06,13.40
2017,11,22,11,07,13.40
2017,11,22,11,08,13.40
2017,11,22,11,09,13.30
2017,11,22,11,10,13.30
2017,11,22,11,11,13.30
2017,11,22,11,12,13.30
2017,11,22,11,13,13.30
2017,11,22,11,14,13.30
2017,11,22,11,15,13.20
2017,11,22,11,16,13.20
2017,11,22,11,17,13.20
2017,11,22,11,18,13.10
2017,11,22,11,19,13.10
2017,11,22,11,20,13.20
2017,11,22,11,21,13.20
2017,11,22,11,22,13.20
2017,11,22,11,23,13.20
2017,11,22,11,24,13.20
2017,11,22,11,25,13.20
2017,11,22,11,26,13.30
2017,11,22,11,27,13.40
2017,11,22,11,28,13.60
2017,11,22,11,29,13.70
2017,11,22,11,30,13.80
2017,11,22,11,31,13.80
2017,11,22,11,32,13.80
2017,11,22,11,33,13.90
2017,11,22,11,34,14.00
2017,11,22,11,35,14.00
2017,11,22,11,36,14.20
2017,11,22,11,37,14.30
2017,11,22,11,38,14.30
2017,11,22,11,39,14.30
2017,11,22,11,40,14.30
2017,11,22,11,41,14.30
2017,11,22,11,42,14.30
2017,11,22,11,43,14.30
2017,11,22,11,44,14.30
2017,11,22,11,45,14.30
2017,11,22,11,46,14.30
2017,11,22,11,47,14.30
2017,11,22,11,48,14.30
2017,11,22,11,49,14.30
2017,11,22,11,50,14.40
2017,11,22,11,51,14.40
2017,11,22,11,52,14.40
2017,11,22,11,53,14.40
2017,11,22,11,54,14.40
2017,11,22,11,55,14.40
2017,11,22,11,56,14.30
2017,11,22,11,57,14.30
2017,11,22,11,58,14.40
2017,11,22,11,59,14.40
2017,11,22,12,00,14.40
2017,11,22,12,01,14.40
2017,11,22,12,02,14.40
2017,11,22,12,03,14.50
2017,11,22,12,04,14.50
2017,11,22,12,05,14.60
2017,11,22,12,06,14.60
2017,11,22,12,07,14.70
2017,11,22,12,08,14.70
2017,11,22,12,09,14.70
2017,11,22,12,10,14.70
2017,11,22,12,11,14.70
2017,11,22,12,12,14.60
2017,11,22,12,13,14.60
2017,11,22,12,14,14.70
2017,11,22,12,15,14.70
2017,11,22,12,16,14.70
2017,11,22,12,17,14.60
2017,11,22,12,18,14.60
2017,11,22,12,19,14.60
2017,11,22,12,20,14.60
2017,11,22,12,21,14.60
2017,11,22,12,22,14.60
2017,11,22,12,23,14.60
2017,11,22,12,24,14.60
2017,11,22,12,25,14.70
2017,11,22,12,26,14.70
2017,11,22,12,27,14.80
2017,11,22,12,28,14.90
2017,11,22,12,29,15.00
2017,11,22,12,30,15.00
2017,11,22,12,31,15.10
2017,11,22,12,32,15.20
2017,11,22,12,33,15.20
2017,11,22,12,34,15.20
2017,11,22,12,35,15.10
2017,11,22,12,36,15.10
2017,11,22,12,37,15.10
2017,11,22,12,38,15.10
2017,11,22,12,39,15.00
2017,11,22,12,40,15.00
2017,11,22,12,41,15.00
2017,11,22,12,42,15.00
2017,11,22,12,43,15.10
2017,11,22,12,44,15.10
2017,11,22,12,45,15.10
2017,11,22,12,46,15.20
2017,11,22,12,47,15.20
2017,11,22,12,48,15.10
2017,11,22,12,49,15.10
2017,11,22,12,50,15.10
2017,11,22,12,51,15.10
2017,11,22,12,52,15.10
2017,11,22,12,53,15.10
2017,11,22,12,54,15.10
2017,11,22,12,55,15.10
2017,11,22,12,56,15.10
2017,11,22,12,57,15.10
2017,11,22,12,58,15.00
2017,11,22,12,59,15.00
2017,11,22,13,00,15.10
2017,11,22,13,01,15.10
2017,11,22,13,02,15.10
2017,11,22,13,03,15.20
2017,11,22,13,04,15.20
2017,11,22,13,05,15.30
2017,11,22,13,06,15.30
2017,11,22,13,07,15.40
2017,11,22,13,08,15.40
2017,11,22,13,09,15.40
2017,11,22,13,10,15.40
2017,11,22,13,11,15.40
2017,11,22,13,12,15.30
2017,11,22,13,13,15.30
2017,11,22,13,14,15.30
2017,11,22,13,15,15.30
2017,11,22,13,16,15.30
2017,11,22,13,17,15.20
2017,11,22,13,18,15.20
2017,11,22,13,19,15.20
2017,11,22,13,20,15.20
2017,11,22,13,21,15.20
2017,11,22,13,22,15.20
2017,11,22,13,23,15.10
2017,11,22,13,24,15.10
2017,11,22,13,25,15.20
2017,11,22,13,26,15.20
2017,11,22,13,27,15.20
2017,11,22,13,28,15.20
2017,11,22,13,29,15.20
2017,11,22,13,30,15.30
2017,11,22,13,31,15.30
2017,11,22,13,32,15.30
2017,11,22,13,33,15.30
2017,11,22,13,34,15.30
2017,11,22,13,35,15.30
2017,11,22,13,36,15.30
2017,11,22,13,37,15.30
2017,11,22,13,38,15.30
2017,11,22,13,39,15.30
2017,11,22,13,40,15.30
2017,11,22,13,41,15.30
2017,11,22,13,42,15.30
2017,11,22,13,43,15.30
2017,11,22,13,44,15.30
2017,11,22,13,45,15.30
2017,11,22,13,46,15.30
2017,11,22,13,47,15.20
2017,11,22,13,48,15.20
2017,11,22,13,49,15.10
2017,11,22,13,50,15.10
2017,11,22,13,51,15.20
2017,11,22,13,52,15.20
2017,11,22,13,53,15.20
2017,11,22,13,54,15.20
2017,11,22,13,55,15.20
2017,11,22,13,56,15.20
2017,11,22,13,57,15.20
2017,11,22,13,58,15.30
2017,11,22,13,59,15.30
2017,11,22,14,00,15.30
2017,11,22,14,01,15.30
2017,11,22,14,02,15.30
2017,11,22,14,03,15.30
2017,11,22,14,04,15.30
2017,11,22,14,05,15.30
2017,11,22,14,06,15.30
2017,11,22,14,07,15.20
2017,11,22,14,08,15.20
2017,11,22,14,09,15.20
2017,11,22,14,10,15.20
2017,11,22,14,11,15.10
2017,11,22,14,12,15.10
2017,11,22,14,13,15.10
2017,11,22,14,14,15.00
2017,11,22,14,15,15.10
2017,11,22,14,16,15.10
2017,11,22,14,17,15.10
2017,11,22,14,18,15.10
2017,11,22,14,19,15.20
2017,11,22,14,20,15.20
2017,11,22,14,21,15.20
2017,11,22,14,22,15.20
2017,11,22,14,23,15.30
2017,11,22,14,24,15.30
2017,11,22,14,25,15.30
2017,11,22,14,26,15.40
2017,11,22,14,27,15.40
2017,11,22,14,28,15.50
2017,11,22,14,29,15.50
2017,11,22,14,30,15.60
2017,11,22,14,31,15.60
2017,11,22,14,32,15.50
2017,11,22,14,33,15.50
2017,11,22,14,34,15.40
2017,11,22,14,35,15.30
2017,11,22,14,36,15.20
2017,11,22,14,37,15.20
2017,11,22,14,38,15.20
2017,11,22,14,39,15.20
2017,11,22,14,40,15.10
2017,11,22,14,41,15.00
2017,11,22,14,42,15.00
2017,11,22,14,43,14.90
2017,11,22,14,44,14.90
2017,11,22,14,45,14.90
2017,11,22,14,46,14.90
2017,11,22,14,47,14.90
2017,11,22,14,48,14.90
2017,11,22,14,49,14.90
2017,11,22,14,50,14.90
2017,11,22,14,51,14.90
2017,11,22,14,52,14.90
2017,11,22,14,53,14.90
2017,11,22,14,54,14.90
2017,11,22,14,55,14.90
2017,11,22,14,56,14.90
2017,11,22,14,57,14.90
2017,11,22,14,58,14.90
2017,11,22,14,59,14.90
2017,11,22,15,00,14.90
2017,11,22,15,01,14.80
2017,11,22,15,02,14.80
2017,11,22,15,03,14.80
2017,11,22,15,04,14.80
2017,11,22,15,05,14.70
2017,11,22,15,06,14.70
2017,11,22,15,07,14.60
2017,11,22,15,08,14.60
2017,11,22,15,09,14.50
2017,11,22,15,10,14.30
2017,11,22,15,11,14.30
2017,11,22,15,12,14.20
2017,11,22,15,13,14.10
2017,11,22,15,14,14.00
2017,11,22,15,15,14.00
2017,11,22,15,16,13.90
2017,11,22,15,17,13.90
2017,11,22,15,18,13.90
2017,11,22,15,19,13.90
2017,11,22,15,20,13.80
2017,11,22,15,21,13.80
2017,11,22,15,22,13.80
2017,11,22,15,23,13.90
2017,11,22,15,24,13.90
2017,11,22,15,25,13.90
2017,11,22,15,26,13.90
2017,11,22,15,27,13.80
2017,11,22,15,28,13.80
2017,11,22,15,29,13.80
2017,11,22,15,30,13.70
2017,11,22,15,31,13.70
2017,11,22,15,32,13.60
2017,11,22,15,33,13.50
2017,11,22,15,34,13.40
2017,11,22,15,35,13.40
2017,11,22,15,36,13.30
2017,11,22,15,37,13.30
2017,11,22,15,38,13.20
2017,11,22,15,39,13.20
2017,11,22,15,40,13.20
2017,11,22,15,41,13.10
2017,11,22,15,42,13.10
2017,11,22,15,43,13.10
2017,11,22,15,44,13.10
2017,11,22,15,45,13.10
2017,11,22,15,46,13.10
2017,11,22,15,47,13.00
2017,11,22,15,48,13.00
2017,11,22,15,49,12.90
2017,11,22,15,50,12.90
2017,11,22,15,51,12.90
2017,11,22,15,52,12.90
2017,11,22,15,53,12.80
2017,11,22,15,54,12.80
2017,11,22,15,55,12.80
2017,11,22,15,56,12.80
2017,11,22,15,57,12.80
2017,11,22,15,58,12.70
2017,11,22,15,59,12.70
2017,11,22,16,00,12.70
2017,11,22,16,01,12.60
2017,11,22,16,02,12.60
2017,11,22,16,03,12.50
2017,11,22,16,04,12.50
2017,11,22,16,05,12.40
2017,11,22,16,06,12.40
2017,11,22,16,07,12.40
2017,11,22,16,08,12.30
2017,11,22,16,09,12.30
2017,11,22,16,10,12.30
2017,11,22,16,11,12.30
2017,11,22,16,12,12.20
2017,11,22,16,13,12.20
2017,11,22,16,14,12.20
2017,11,22,16,15,12.20
2017,11,22,16,16,12.20
2017,11,22,16,17,12.20
2017,11,22,16,18,12.20
2017,11,22,16,19,12.20
2017,11,22,16,20,12.20
2017,11,22,16,21,12.20
2017,11,22,16,22,12.20
2017,11,22,16,23,12.20
2017,11,22,16,24,12.20
2017,11,22,16,25,12.20
2017,11,22,16,26,12.20
2017,11,22,16,27,12.20
2017,11,22,16,28,12.20
2017,11,22,16,29,12.20
2017,11,22,16,30,12.20
2017,11,22,16,31,12.20
2017,11,22,16,32,12.10
2017,11,22,16,33,12.10
2017,11,22,16,34,12.10
2017,11,22,16,35,12.10
2017,11,22,16,36,12.10
2017,11,22,16,37,12.10
2017,11,22,16,38,12.10
2017,11,22,16,39,12.00
2017,11,22,16,40,12.00
2017,11,22,16,41,12.00
2017,11,22,16,42,11.90
2017,11,22,16,43,11.90
2017,11,22,16,44,11.90
2017,11,22,16,45,11.90
2017,11,22,16,46,11.90
2017,11,22,16,47,11.90
2017,11,22,16,48,11.90
2017,11,22,16,49,11.90
2017,11,22,16,50,11.90
2017,11,22,16,51,11.90
2017,11,22,16,52,11.90
2017,11,22,16,53,11.90
2017,11,22,16,54,11.90
2017,11,22,16,55,11.80
2017,11,22,16,56,11.80
2017,11,22,16,57,11.80
2017,11,22,16,58,11.80
2017,11,22,16,59,11.80
2017,11,22,17,00,11.80
2017,11,22,17,01,11.80
2017,11,22,17,02,11.90
2017,11,22,17,03,11.90
2017,11,22,17,04,11.90
2017,11,22,17,05,11.90
2017,11,22,17,06,11.90
2017,11,22,17,07,11.90
2017,11,22,17,08,11.90
2017,11,22,17,09,11.90
2017,11,22,17,10,11.90
2017,11,22,17,11,11.80
2017,11,22,17,12,11.80
2017,11,22,17,13,11.80
2017,11,22,17,14,11.80
2017,11,22,17,15,11.80
2017,11,22,17,16,11.80
2017,11,22,17,17,11.80
2017,11,22,17,18,11.80
2017,11,22,17,19,11.80
2017,11,22,17,20,11.80
2017,11,22,17,21,11.80
2017,11,22,17,22,11.80
2017,11,22,17,23,11.80
2017,11,22,17,24,11.80
2017,11,22,17,25,11.80
2017,11,22,17,26,11.80
2017,11,22,17,27,11.80
2017,11,22,17,28,11.80
2017,11,22,17,29,11.80
2017,11,22,17,30,11.80
2017,11,22,17,31,11.80
2017,11,22,17,32,11.80
2017,11,22,17,33,11.80
2017,11,22,17,34,11.80
2017,11,22,17,35,11.70
2017,11,22,17,36,11.60
2017,11,22,17,37,11.50
2017,11,22,17,38,11.50
2017,11,22,17,39,11.50
2017,11,22,17,40,11.50
2017,11,22,17,41,11.50
2017,11,22,17,42,11.50
2017,11,22,17,43,11.60
2017,11,22,17,44,11.60
2017,11,22,17,45,11.60
2017,11,22,17,46,11.60
2017,11,22,17,47,11.60
2017,11,22,17,48,11.60
2017,11,22,17,49,11.60
2017,11,22,17,50,11.60
2017,11,22,17,51,11.60
2017,11,22,17,52,11.60
2017,11,22,17,53,11.60
2017,11,22,17,54,11.60
2017,11,22,17,55,11.60
2017,11,22,17,56,11.60
2017,11,22,17,57,11.60
2017,11,22,17,58,11.60
2017,11,22,17,59,11.60
2017,11,22,18,00,11.70
2017,11,22,18,01,11.70
2017,11,22,18,02,11.70
2017,11,22,18,03,11.70
2017,11,22,18,04,11.60
2017,11,22,18,05,11.60
2017,11,22,18,06,11.60
2017,11,22,18,07,11.60
2017,11,22,18,08,11.60
2017,11,22,18,09,11.60
2017,11,22,18,10,11.60
2017,11,22,18,11,11.60
2017,11,22,18,12,11.60
2017,11,22,18,13,11.60
2017,11,22,18,14,11.60
2017,11,22,18,15,11.60
2017,11,22,18,16,11.50
2017,11,22,18,17,11.60
2017,11,22,18,18,11.60
2017,11,22,18,19,11.60
2017,11,22,18,20,11.60
2017,11,22,18,21,11.60
2017,11,22,18,22,11.60
2017,11,22,18,23,11.60
2017,11,22,18,24,11.60
2017,11,22,18,25,11.60
2017,11,22,18,26,11.60
2017,11,22,18,27,11.60
2017,11,22,18,28,11.60
2017,11,22,18,29,11.60
2017,11,22,18,30,11.60
2017,11,22,18,31,11.60
2017,11,22,18,32,11.60
2017,11,22,18,33,11.60
2017,11,22,18,34,11.60
2017,11,22,18,35,11.60
2017,11,22,18,36,11.60
2017,11,22,18,37,11.60
2017,11,22,18,38,11.60
2017,11,22,18,39,11.70
2017,11,22,18,40,11.70
2017,11,22,18,41,11.70
2017,11,22,18,42,11.70
2017,11,22,18,43,11.70
2017,11,22,18,44,11.70
2017,11,22,18,45,11.70
2017,11,22,18,46,11.70
2017,11,22,18,47,11.80
2017,11,22,18,48,11.80
2017,11,22,18,49,11.80
2017,11,22,18,50,11.80
2017,11,22,18,51,11.80
2017,11,22,18,52,11.80
2017,11,22,18,53,11.80
2017,11,22,18,54,11.80
2017,11,22,18,55,11.80
2017,11,22,18,56,11.80
2017,11,22,18,57,11.70
2017,11,22,18,58,11.70
2017,11,22,18,59,11.70
2017,11,22,19,00,11.70
2017,11,22,19,01,11.70
2017,11,22,19,02,11.70
2017,11,22,19,03,11.70
2017,11,22,19,04,11.70
2017,11,22,19,05,11.70
2017,11,22,19,06,11.70
2017,11,22,19,07,11.60
2017,11,22,19,08,11.60
2017,11,22,19,09,11.60
2017,11,22,19,10,11.70
2017,11,22,19,11,11.70
2017,11,22,19,12,11.70
2017,11,22,19,13,11.70
2017,11,22,19,14,11.70
2017,11,22,19,15,11.70
2017,11,22,19,16,11.70
2017,11,22,19,17,11.70
2017,11,22,19,18,11.70
2017,11,22,19,19,11.70
2017,11,22,19,20,11.70
2017,11,22,19,21,11.70
2017,11,22,19,22,11.70
2017,11,22,19,23,11.70
2017,11,22,19,24,11.70
2017,11,22,19,25,11.70
2017,11,22,19,26,11.70
2017,11,22,19,27,11.80
2017,11,22,19,28,11.80
2017,11,22,19,29,11.80
2017,11,22,19,30,11.80
2017,11,22,19,31,11.90
2017,11,22,19,32,12.00
2017,11,22,19,33,12.00
2017,11,22,19,34,12.10
2017,11,22,19,35,12.20
2017,11,22,19,36,12.20
2017,11,22,19,37,12.30
2017,11,22,19,38,12.30
2017,11,22,19,39,12.40
2017,11,22,19,40,12.50
2017,11,22,19,41,12.60
2017,11,22,19,42,12.70
2017,11,22,19,43,12.80
2017,11,22,19,44,12.80
2017,11,22,19,45,12.90
2017,11,22,19,46,13.00
2017,11,22,19,47,13.00
2017,11,22,19,48,13.10
2017,11,22,19,49,13.10
2017,11,22,19,50,13.20
2017,11,22,19,51,13.20
2017,11,22,19,52,13.20
2017,11,22,19,53,13.20
2017,11,22,19,54,13.20
2017,11,22,19,55,13.30
2017,11,22,19,56,13.30
2017,11,22,19,57,13.40
2017,11,22,19,58,13.40
2017,11,22,19,59,13.40
2017,11,22,20,00,13.50
2017,11,22,20,01,13.50
2017,11,22,20,02,13.60
2017,11,22,20,03,13.70
2017,11,22,20,04,13.70
2017,11,22,20,05,13.80
2017,11,22,20,06,13.80
2017,11,22,20,07,13.90
2017,11,22,20,08,13.90
2017,11,22,20,09,13.90
2017,11,22,20,10,14.00
2017,11,22,20,11,14.10
2017,11,22,20,12,14.10
2017,11,22,20,13,14.10
2017,11,22,20,14,14.20
2017,11,22,20,15,14.20
2017,11,22,20,16,14.20